カタログに戻る

COSMOS 2251 DEB

運用中LEO
NORAD 34432·DEBRIS·🇷🇺 Russia

打ち上げ Jun 16, 1993 から Plesetsk Cosmodrome

Loading…

次のパス (今後24時間)

TLE

最新Source: Space-Track

元期: Sep 13, 2026, 16:38 UTC

1 34432U 93036RZ  26256.69330297  .00000513  00000-0  29629-3 0  9997
2 34432  73.8296 337.5913 0183032  10.2296 114.2848 14.03528381895411

AllMySatでCOSMOS 2251 DEBをリアルタイム追跡

Download on the App Store